1531666800.28,53656,17.69,73906.5,5.41,4.05,4.05,0,*7E
1531666801.51,53657,17.69,73910.0,5.41,4.05,4.05,0,*7F
1531666802.74,53658,17.69,73904.5,5.41,4.05,4.05,0,*70
1531666803.97,53659,17.69,73906.5,5.41,4.05,4.05,0,*71
1531666805.2,53660,17.69,73910.5,5.41,4.05,4.05,0,*7B
1531666806.38,53661,17.69,73910.0,5.41,3.93,3.93,0,*7A
1531666807.58,53662,17.69,73910.0,5.41,4.01,3.93,0,*75
1531666808.81,53663,17.69,73904.8,5.41,4.05,4.05,0,*78
1531666810.04,53664,17.69,73910.5,5.41,4.05,4.01,0,*7B
1531666811.29,53665,17.69,73912.0,5.43,4.05,4.05,0,*7C
1531666812.54,53666,17.69,73916.5,5.43,3.97,3.97,0,*7F
1531666813.77,53667,17.69,73918.8,5.43,3.97,3.93,0,*7A
1531666815.0,53668,17.69,73920.8,5.43,3.93,3.97,0,*75
1531666816.2,53669,17.69,73918.8,5.43,3.89,3.81,0,*78
1531666817.41,53670,17.69,73918.5,5.43,3.93,3.89,0,*73
1531666818.66,53671,17.69,73918.3,5.43,3.97,4.05,0,*75
1531666819.89,53672,17.69,73916.5,5.43,3.93,3.97,0,*7E
1531666821.14,53673,17.69,73912.0,5.43,3.97,3.97,0,*7B
1531666822.39,53674,17.69,73918.3,5.43,4.05,4.05,0,*7C
1531666823.65,53675,17.69,73910.0,5.43,4.05,4.05,0,*7D
1531666824.85,53676,17.69,73912.5,5.45,4.07,4.01,0,*7E
1531666826.02,53677,17.69,73914.5,5.45,3.85,3.63,0,*71
1531666827.22,53678,17.69,73920.8,5.45,3.85,3.49,0,*76
1531666828.44,53679,17.69,73920.8,5.45,3.71,3.23,0,*70
1531666829.65,53680,17.69,73918.5,5.45,3.25,2.81,0,*7E
1531666830.85,53681,17.69,73918.0,5.45,2.91,2.39,0,*72
1531666832.07,53682,17.69,73920.5,5.45,2.05,1.43,0,*72
1531666833.26,53683,17.69,73924.3,5.45,0.63,-0.15,0,*5E
1531666834.46,53684,17.69,73926.0,5.49,-0.15,-0.89,0,*7C
1531666835.68,53685,17.69,73922.5,5.45,-2.59,-3.63,0,*7C
1531666836.91,53686,17.69,73916.5,5.43,-4.73,-4.09,0,*7C
1531666838.1,53687,17.69,73922.0,5.41,-4.25,-3.11,0,*72
1531666839.3,53688,17.69,73916.5,5.41,-6.05,-3.71,0,*7B
1531666840.53,53689,17.69,73910.8,5.41,-4.85,-1.83,0,*7F
1531666841.73,53690,17.69,73902.8,5.41,-2.79,-0.97,0,*46
1531666842.95,53691,17.69,73908.5,5.37,-1.33,-1.05,0,*71
1531666844.18,53692,17.69,73916.0,5.37,-5.07,-3.71,0,*70
1531666845.42,53693,17.69,73920.3,5.35,-6.27,-2.91,0,*7D
1531666846.65,53694,17.69,73920.0,5.35,-5.77,-2.91,0,*7C
1531666847.86,53695,17.69,73912.0,5.33,-5.73,-1.67,0,*75
1531666849.03,53696,17.69,73904.8,5.33,-2.91,0.09,0,*59
1531666850.26,53697,17.69,73894.5,5.31,-1.55,0.21,0,*6B
1531666851.49,53698,17.69,73896.5,5.29,-0.85,0.91,0,*5A
1531666852.7,53699,17.69,73894.3,5.29,0.75,1.47,0,*43
1531666853.87,53700,17.69,73890.5,5.23,1.79,2.31,0,*77
1531666855.09,53701,17.69,73892.3,5.23,2.85,3.15,0,*71
1531666856.32,53702,17.69,73892.8,5.25,3.37,3.49,0,*75
1531666857.56,53703,17.69,73894.8,5.25,3.41,3.41,0,*7D
1531666858.79,53704,17.69,73896.3,5.25,3.41,3.37,0,*7B
1531666860.03,53705,17.69,73900.5,5.25,3.15,3.37,0,*7B
1531666861.2,53706,17.69,73904.0,5.29,2.95,3.29,0,*72
1531666862.41,53707,17.69,73908.3,5.25,3.03,3.29,0,*71
1531666863.61,53708,17.69,73918.3,5.25,3.03,3.29,0,*7E
1531666864.81,53709,17.69,73914.5,5.29,2.61,3.23,0,*7C
1531666866.04,53710,17.69,73916.0,5.29,2.51,3.03,0,*75
1531666867.27,53711,17.69,73922.0,5.29,2.09,2.51,0,*7F
1531666868.5,53712,17.69,73924.3,5.29,1.97,2.69,0,*73
1531666869.72,53713,17.69,73910.8,5.23,1.43,2.01,0,*7F
1531666870.94,53714,17.69,73902.3,5.25,3.03,3.19,0,*70
1531666872.12,53715,17.69,73898.0,5.23,2.65,2.65,0,*7C
1531666873.35,53716,17.69,73896.8,5.23,2.39,2.43,0,*72
1531666874.55,53717,17.69,73900.8,5.23,2.99,3.11,0,*7F
1531666875.78,53718,17.69,73900.0,5.23,3.45,3.45,0,*71
1531666877.03,53719,17.69,73890.8,5.21,3.03,3.11,0,*71
1531666878.26,53720,17.69,73896.5,5.19,3.33,3.33,0,*73
1531666879.51,53721,17.69,73902.8,5.21,3.45,3.45,0,*79
1531666880.75,53722,17.69,73904.8,5.21,3.33,3.37,0,*7E
1531666881.94,53723,17.69,73910.3,5.21,3.59,3.59,0,*7B
1531666883.14,53724,17.69,73910.3,5.21,3.59,3.59,0,*7C
1531666884.39,53725,17.69,73908.8,5.21,3.71,3.75,0,*79
1531666885.63,53726,17.69,73914.8,5.21,3.97,3.97,0,*7E
1531666886.81,53727,17.69,73914.0,5.23,4.07,4.15,0,*7E
1531666887.99,53728,17.69,73914.8,5.23,3.93,3.93,0,*72
1531666889.21,53729,17.69,73912.8,5.25,3.97,4.01,0,*7D
1531666890.4,53730,17.69,73910.8,5.25,4.07,4.07,0,*7D
1531666891.62,53731,17.69,73914.8,5.25,3.97,3.97,0,*7C
1531666892.82,53732,17.69,73908.8,5.25,3.81,3.75,0,*74
1531666894.04,53733,17.69,73918.0,5.29,4.01,4.01,0,*72
1531666895.26,53734,17.69,73910.5,5.29,4.01,4.01,0,*75
1531666896.47,53735,17.69,73904.3,5.31,3.93,3.93,0,*7D
1531666897.67,53736,17.69,73916.3,5.29,4.05,4.11,0,*72
1531666898.93,53737,17.69,73920.0,5.31,4.05,4.05,0,*7F
1531666900.14,53738,17.69,73916.3,5.31,3.93,3.93,0,*70
1531666901.36,53739,17.69,73914.5,5.31,3.45,3.55,0,*70
1531666902.6,53740,17.69,73916.8,5.31,3.53,3.53,0,*7F
1531666903.86,53741,17.69,73908.0,5.31,3.11,3.07,0,*79
1531666905.09,53742,17.69,73910.0,5.29,3.11,3.11,0,*74
1531666906.33,53743,17.69,73914.0,5.31,3.45,3.53,0,*7B
1531666907.59,53744,17.69,73914.5,5.31,3.75,3.75,0,*7B
1531666908.8,53745,17.69,73908.0,5.31,3.81,3.89,0,*72
1531666910.05,53746,17.69,73910.0,5.31,3.33,3.41,0,*7C
1531666911.31,53747,17.69,73910.5,5.31,2.51,2.51,0,*78
1531666912.54,53748,17.63,73902.8,5.29,2.47,2.47,0,*7E
1531666913.71,53749,17.63,73910.8,5.25,2.31,2.31,0,*73
1531666914.94,53750,17.69,73916.8,5.25,2.55,2.43,0,*7C
1531666916.14,53751,17.63,73910.3,5.23,2.01,1.79,0,*70
1531666917.34,53752,17.69,73914.8,5.23,1.93,1.83,0,*7E
1531666918.54,53753,17.69,73924.0,5.19,1.89,1.75,0,*74
1531666919.79,53754,17.69,73928.0,5.17,2.81,2.81,0,*7E
1531666921.02,53755,17.69,73926.3,5.15,2.69,2.69,0,*7D
1531666922.24,53756,17.69,73926.8,5.15,2.69,2.69,0,*7E
1531666923.47,53757,17.69,73932.5,5.15,2.55,2.59,0,*73
1531666924.69,53758,17.69,73932.0,5.15,2.77,2.89,0,*71
1531666925.92,53759,17.69,73934.8,5.15,2.89,2.89,0,*71
1531666927.15,53760,17.69,73932.8,5.17,2.99,3.07,0,*7F
1531666928.38,53761,17.69,73930.3,5.15,3.15,3.15,0,*7A
1531666929.58,53762,17.69,73934.5,5.17,2.95,2.95,0,*7B
1531666930.81,53763,17.69,73936.0,5.15,2.55,2.59,0,*74
1531666932.06,53764,17.69,73928.0,5.13,2.77,2.77,0,*79
1531666933.29,53765,17.69,73930.8,5.13,2.91,2.89,0,*71
1531666934.54,53766,17.69,73928.8,5.13,2.89,2.81,0,*73
1531666935.72,53767,17.69,73932.8,5.11,2.65,2.65,0,*78
1531666936.94,53768,17.69,73930.8,5.11,2.85,2.85,0,*77
1531666938.16,53769,17.69,73930.3,5.11,2.43,2.55,0,*71
1531666939.36,53770,17.69,73930.8,5.11,2.61,2.55,0,*79
1531666940.58,53771,17.69,73928.8,5.11,2.73,2.85,0,*76
1531666941.82,53772,17.69,73934.0,5.09,2.85,2.85,0,*75
1531666943.08,53773,17.69,73930.0,5.09,2.81,2.81,0,*74
1531666944.28,53774,17.69,73926.5,5.07,2.89,2.95,0,*70
1531666945.48,53775,17.69,73926.5,5.09,2.95,2.99,0,*7E
1531666946.68,53776,17.69,73926.0,5.07,3.29,3.23,0,*75
1531666947.91,53777,17.63,73922.8,5.09,3.29,3.33,0,*7B
1531666949.11,53778,17.69,73924.5,5.09,3.29,3.29,0,*7F
1531666950.29,53779,17.69,73924.3,5.07,3.59,3.59,0,*70
1531666951.51,53780,17.69,73924.0,5.09,3.59,3.67,0,*75
1531666952.74,53781,17.69,73922.5,5.07,3.67,3.67,0,*77
1531666953.97,53782,17.69,73918.5,5.09,3.59,3.67,0,*77
1531666955.22,53783,17.69,73916.5,5.09,3.67,3.67,0,*7B
1531666956.47,53784,17.69,73922.8,5.09,3.53,3.41,0,*7F
1531666957.7,53785,17.69,73918.8,5.09,3.45,3.55,0,*7C
1531666958.89,53786,17.69,73922.5,5.13,3.59,3.55,0,*79
1531666960.08,53787,17.69,73924.0,5.11,3.49,3.55,0,*7B
1531666961.32,53788,17.69,73920.3,5.13,3.49,3.53,0,*70
1531666962.55,53789,17.69,73926.0,5.11,3.45,3.45,0,*78
1531666963.75,53790,17.69,73922.0,5.11,3.25,3.37,0,*73
1531666964.93,53791,17.69,73918.3,5.11,3.25,3.25,0,*71
1531666966.15,53792,17.69,73918.5,5.11,3.49,3.49,0,*72
1531666967.33,53793,17.69,73916.0,5.11,3.63,3.59,0,*7A
1531666968.53,53794,17.69,73912.5,5.11,3.71,3.81,0,*7B
1531666969.74,53795,17.69,73908.3,5.11,3.75,3.81,0,*7E
1531666970.96,53796,17.69,73904.3,5.13,3.79,3.85,0,*77
1531666972.22,53797,17.69,73902.5,5.13,3.67,3.75,0,*76
1531666973.39,53798,17.69,73904.3,5.11,3.63,3.63,0,*78
1531666974.61,53799,17.69,73904.5,5.13,3.63,3.67,0,*7F
1531666975.77,53800,17.69,73906.0,5.11,3.55,3.59,0,*7A
1531666976.97,53801,17.63,73908.3,5.13,3.63,3.59,0,*7C
1531666978.14,53802,17.69,73908.0,5.11,3.63,3.63,0,*74
1531666979.39,53803,17.69,73916.3,5.13,3.67,3.67,0,*77
1531666980.59,53804,17.69,73918.0,5.11,3.63,3.71,0,*71
1531666981.84,53805,17.69,73922.8,5.13,3.67,3.67,0,*71
1531666983.09,53806,17.69,73928.5,5.13,3.75,3.79,0,*7E
1531666984.32,53807,17.69,73928.3,5.13,3.85,3.79,0,*70
1531666985.54,53808,17.69,73928.3,5.13,3.85,3.79,0,*7F
1531666986.76,53809,17.69,73928.3,5.13,3.85,3.79,0,*7E
1531666987.96,53810,17.69,73934.5,5.15,3.67,3.59,0,*7E
1531666989.14,53811,17.63,73926.5,5.15,3.63,3.63,0,*72
1531666990.34,53812,17.69,73924.3,5.15,3.59,3.67,0,*7C
1531666991.51,53813,17.69,73924.8,5.15,3.63,3.63,0,*70
1531666992.74,53814,17.69,73924.3,5.15,3.75,3.75,0,*77
1531666993.97,53815,17.69,73920.0,5.17,3.79,3.81,0,*73
1531666995.21,53816,17.63,73920.8,5.15,3.75,3.79,0,*79
1531666996.44,53817,17.69,73924.5,5.15,3.67,3.75,0,*77
1531666997.66,53818,17.69,73924.5,5.15,3.53,3.53,0,*7B
1531666998.9,53819,17.69,73924.8,5.15,3.41,3.41,0,*7A
1531667000.12,53820,17.69,73924.5,5.15,3.37,3.37,0,*70
1531667001.37,53821,17.69,73926.5,5.17,3.53,3.53,0,*73
1531667002.6,53822,17.69,73920.0,5.15,3.41,3.41,0,*72
1531667003.86,53823,17.69,73924.8,5.13,3.03,3.03,0,*75
1531667005.05,53824,17.69,73928.0,5.13,2.95,2.95,0,*72
1531667006.25,53825,17.69,73924.8,5.13,2.95,2.95,0,*73
1531667007.42,53826,17.63,73918.0,5.11,2.99,2.99,0,*72
1531667008.65,53827,17.69,73908.3,5.11,3.03,3.11,0,*70
1531667009.85,53828,17.69,73914.0,5.11,2.89,2.91,0,*75
1531667011.09,53829,17.69,73918.3,5.13,2.77,2.69,0,*70
1531667012.29,53830,17.69,73912.0,5.11,2.91,2.85,0,*70
1531667013.51,53831,17.69,73908.3,5.11,2.89,2.89,0,*74
1531667014.69,53832,17.69,73914.8,5.07,2.95,2.99,0,*7C
1531667015.87,53833,17.69,73918.3,5.07,2.95,2.99,0,*7D
1531667017.09,53834,17.69,73916.3,5.09,2.89,2.95,0,*75
1531667018.27,53835,17.69,73914.5,5.07,2.99,2.99,0,*77
1531667019.44,53836,17.69,73912.5,5.07,2.99,2.99,0,*74
1531667020.62,53837,17.69,73914.3,5.07,2.99,2.99,0,*75
1531667021.82,53838,17.69,73910.5,5.09,2.99,2.95,0,*78
1531667023.02,53839,17.69,73908.0,5.03,2.91,2.85,0,*7A
1531667024.22,53840,17.69,73914.0,5.03,2.91,2.85,0,*74
1531667025.46,53841,17.69,73918.8,5.03,2.59,2.43,0,*7B
1531667026.63,53842,17.69,73920.5,5.03,1.83,1.83,0,*73
1531667027.86,53843,17.63,73926.5,5.03,0.79,1.63,0,*48
1531667029.06,53844,17.69,73926.5,5.03,1.37,2.31,0,*70
1531667030.26,53845,17.69,73924.8,5.01,1.83,2.35,0,*78
1531667031.51,53846,17.69,73926.0,5.01,2.13,2.55,0,*77
1531667032.74,53847,17.69,73922.5,5.01,2.65,2.85,0,*7A
1531667033.99,53848,17.69,73916.0,5.01,2.59,2.77,0,*77
1531667035.2,53849,17.69,73914.3,4.99,2.43,2.65,0,*7E
1531667036.41,53850,17.69,73914.3,4.99,2.43,2.65,0,*76
1531667037.62,53851,17.69,73910.0,4.99,2.61,2.73,0,*70
1531667038.85,53852,17.69,73904.3,4.99,2.55,2.73,0,*74
1531667040.1,53853,17.69,73902.8,4.97,2.59,2.69,0,*7C
1531667041.31,53854,17.69,73900.5,4.99,2.65,2.73,0,*71
1531667042.54,53855,17.69,73900.8,4.99,2.73,2.81,0,*7A
1531667043.77,53856,17.69,73896.8,4.97,2.61,2.73,0,*79
1531667045.0,53857,17.69,73892.3,4.97,2.61,2.69,0,*73
1531667046.22,53858,17.69,73888.8,4.97,2.61,2.69,0,*7C
1531667047.43,53859,17.69,73902.5,4.97,2.61,2.61,0,*75
1531667048.66,53860,17.69,73902.3,4.95,2.59,2.59,0,*7D
1531667049.9,53861,17.69,73888.5,4.95,2.51,2.59,0,*74
1531667051.13,53862,17.63,73880.3,4.95,2.59,2.59,0,*7F
1531667052.34,53863,17.69,73880.0,4.95,2.69,2.61,0,*76
1531667053.6,53864,17.69,73894.8,4.93,2.47,2.43,0,*7B
1531667054.85,53865,17.69,73896.8,4.91,2.47,2.47,0,*7C
1531667056.08,53866,17.69,73900.5,4.91,2.59,2.65,0,*70
1531667057.31,53867,17.69,73902.5,4.91,2.35,2.39,0,*72
1531667058.5,53868,17.69,73896.5,4.89,2.21,2.31,0,*79
1531667059.7,53869,17.69,73894.5,4.89,2.55,2.65,0,*7A
1531667060.91,53870,17.69,73888.3,4.89,2.69,2.69,0,*71
1531667062.14,53871,17.63,73894.5,4.89,2.77,2.77,0,*70
1531667063.39,53872,17.69,73896.0,4.87,2.39,2.39,0,*7D
1531667064.6,53873,17.69,73896.8,4.87,2.65,2.65,0,*7C
1531667065.78,53874,17.69,73900.8,4.85,2.61,2.65,0,*7D
1531667067.01,53875,17.69,73894.3,4.85,2.73,2.77,0,*7C
1531667068.23,53876,17.69,73898.3,4.85,2.77,2.77,0,*7B
1531667069.45,53877,17.69,73896.8,4.85,2.77,2.85,0,*77
1531667070.68,53878,17.69,73896.5,4.85,2.77,2.73,0,*71
1531667071.9,53879,17.69,73900.3,4.81,2.73,2.73,0,*70
1531667073.13,53880,17.69,73898.0,4.81,2.59,2.59,0,*76
1531667074.31,53881,17.69,73898.0,4.81,2.61,2.61,0,*77
1531667075.56,53882,17.69,73898.5,4.79,2.85,2.85,0,*73
1531667076.81,53883,17.69,73898.8,4.79,2.73,2.73,0,*72
1531667078.03,53884,17.69,73900.0,4.81,2.69,2.69,0,*72
1531667079.24,53885,17.69,73902.8,4.77,2.91,2.89,0,*73
1531667080.5,53886,17.69,73900.3,4.79,3.03,3.15,0,*70
1531667081.76,53887,17.69,73902.5,4.79,3.07,3.07,0,*76
1531667082.96,53888,17.69,73898.5,4.79,2.91,2.95,0,*7D
1531667084.2,53889,17.69,73900.5,4.77,3.03,3.03,0,*76
1531667085.43,53890,17.69,73906.5,4.77,3.11,3.11,0,*7E
1531667086.61,53891,17.69,73904.5,4.77,2.99,2.99,0,*7F
1531667087.81,53892,17.69,73908.5,4.75,2.99,2.99,0,*7E
1531667089.05,53893,17.69,73908.8,4.77,3.15,3.15,0,*7D
1531667090.28,53894,17.69,73912.3,4.77,3.23,3.23,0,*7A
1531667091.51,53895,17.69,73908.3,4.77,3.23,3.15,0,*7E
1531667092.75,53896,17.69,73912.8,4.77,3.11,3.11,0,*78
1531667094.0,53897,17.69,73910.5,4.75,3.19,3.11,0,*73
1531667095.23,53898,17.69,73912.5,4.75,3.07,2.99,0,*72
1531667096.46,53899,17.69,73910.3,4.77,3.37,3.37,0,*77
1531667097.69,53900,17.69,73912.3,4.77,3.37,3.49,0,*7F
1531667098.89,53901,17.69,73912.0,4.77,3.53,3.59,0,*7D
1531667100.09,53902,17.69,73912.0,4.77,3.59,3.53,0,*7E
1531667101.31,53903,17.69,73910.8,4.79,3.45,3.55,0,*7A
1531667102.51,53904,17.69,73912.3,4.79,3.55,3.55,0,*7C
1531667103.71,53905,17.69,73912.0,4.79,3.63,3.63,0,*7D
1531667104.9,53906,17.69,73912.5,4.79,3.55,3.63,0,*7B
1531667106.07,53907,17.69,73914.3,4.81,3.55,3.55,0,*78
1531667107.27,53908,17.69,73916.5,4.79,3.63,3.55,0,*75
1531667108.47,53909,17.69,73908.5,4.79,3.63,3.63,0,*71
1531667109.67,53910,17.69,73914.0,4.81,3.63,3.67,0,*7A
1531667110.84,53911,17.69,73912.0,4.81,3.63,3.55,0,*7A
1531667112.01,53912,17.69,73912.3,4.81,3.63,3.55,0,*79
1531667113.19,53913,17.69,73916.5,4.81,3.63,3.63,0,*7D
1531667114.42,53914,17.69,73914.0,4.81,3.67,3.75,0,*79
1531667115.59,53915,17.69,73914.5,4.85,3.59,3.59,0,*7F
1531667116.76,53916,17.69,73912.8,4.85,3.59,3.59,0,*7C
1531667117.99,53917,17.69,73914.3,4.85,3.67,3.67,0,*7D
1531667119.22,53918,17.69,73914.0,4.85,3.71,3.71,0,*72
1531667120.4,53919,17.69,73912.5,4.85,3.59,3.59,0,*73
1531667121.63,53920,17.63,73910.3,4.85,3.71,3.71,0,*79
1531667122.85,53921,17.63,73912.0,4.85,3.71,3.79,0,*70
1531667124.11,53922,17.69,73910.5,4.87,3.79,3.79,0,*79
1531667125.36,53923,17.63,73910.8,4.87,3.67,3.71,0,*7F
1531667126.59,53924,17.63,73912.0,4.85,3.71,3.71,0,*7D
1531667127.85,53925,17.63,73910.5,4.87,3.79,3.79,0,*7E
1531667129.06,53926,17.69,73912.8,4.87,3.89,3.81,0,*75
1531667130.26,53927,17.69,73916.0,4.87,3.81,3.81,0,*7C
1531667131.47,53928,17.69,73918.0,4.87,3.89,3.89,0,*73
1531667132.64,53929,17.69,73916.8,4.89,3.85,3.85,0,*7C
1531667133.87,53930,17.69,73918.0,4.91,3.89,3.97,0,*72
1531667135.04,53931,17.69,73920.0,4.89,3.93,3.85,0,*72
1531667136.21,53932,17.69,73920.3,4.89,3.81,3.85,0,*72
1531667137.44,53933,17.69,73922.0,4.91,3.75,3.85,0,*71
1531667138.68,53934,17.69,73920.0,4.91,3.97,4.01,0,*71
1531667139.93,53935,17.69,73922.8,4.91,3.97,4.05,0,*74
1531667141.14,53936,17.69,73926.3,4.91,3.89,3.89,0,*7B
1531667142.39,53937,17.69,73922.8,4.91,3.67,3.67,0,*7A
1531667143.62,53938,17.69,73924.5,4.91,3.79,3.85,0,*76
1531667144.87,53939,17.63,73920.0,4.91,3.75,3.79,0,*78
1531667146.1,53940,17.69,73926.5,4.91,3.75,3.85,0,*75
1531667147.35,53941,17.69,73924.5,4.91,3.75,3.79,0,*77
1531667148.55,53942,17.69,73922.8,4.91,3.85,3.85,0,*78
1531667149.77,53943,17.69,73920.8,4.91,3.79,3.85,0,*7A
1531667151.02,53944,17.69,73920.5,4.91,3.79,3.79,0,*7E
1531667152.27,53945,17.69,73922.5,4.91,3.67,3.67,0,*7F
1531667153.54,53946,17.69,73922.0,4.93,3.79,3.75,0,*72
1531667154.8,53947,17.69,73920.8,4.93,3.67,3.67,0,*7F
1531667156.03,53948,17.69,73922.5,4.95,3.71,3.71,0,*76
1531667157.23,53949,17.69,73922.8,4.93,3.55,3.55,0,*71
1531667158.43,53950,17.63,73920.5,4.93,3.55,3.55,0,*79
1531667159.64,53951,17.69,73924.0,4.93,3.63,3.63,0,*78
1531667160.9,53952,17.69,73924.5,4.93,3.67,3.67,0,*7B
1531667162.16,53953,17.69,73924.0,4.93,3.67,3.67,0,*7A
1531667163.42,53954,17.69,73926.3,4.93,3.67,3.79,0,*72
1531667164.68,53955,17.69,73922.0,4.93,3.75,3.79,0,*70
1531667165.91,53956,17.63,73922.3,4.93,3.79,3.85,0,*7C
1531667167.14,53957,17.69,73926.5,4.93,3.85,3.97,0,*7D
1531667168.38,53958,17.69,73924.0,4.93,3.79,3.89,0,*7E
1531667169.62,53959,17.63,73922.0,4.93,3.79,3.89,0,*7F
1531667170.83,53960,17.63,73924.3,4.95,3.89,4.01,0,*7B
1531667172.06,53961,17.63,73922.8,4.93,3.85,3.97,0,*78
1531667173.26,53962,17.69,73924.0,4.95,3.93,4.01,0,*72
1531667174.45,53963,17.69,73924.0,4.95,3.81,3.81,0,*7F
1531667175.65,53964,17.69,73924.3,4.95,3.63,3.75,0,*7F
1531667176.89,53965,17.69,73924.3,4.95,3.79,3.79,0,*79
1531667178.1,53966,17.63,73920.8,4.95,3.71,3.81,0,*75
1531667179.28,53967,17.63,73922.3,4.95,3.81,3.89,0,*73
1531667180.49,53968,17.63,73920.5,4.95,4.01,3.93,0,*78
1531667181.71,53969,17.69,73924.8,4.93,3.89,3.89,0,*73
1531667182.93,53970,17.63,73922.5,4.97,3.89,4.01,0,*78
1531667184.16,53971,17.69,73922.8,4.97,4.01,3.93,0,*72
1531667185.37,53972,17.69,73918.0,4.97,3.89,3.89,0,*7D
1531667186.6,53973,17.69,73916.5,4.97,3.79,3.89,0,*73
1531667187.78,53974,17.69,73920.0,4.99,3.85,3.85,0,*75
1531667188.98,53975,17.69,73920.0,4.97,3.81,3.93,0,*79
1531667190.21,53976,17.69,73922.0,4.97,3.93,4.01,0,*75
1531667191.41,53977,17.63,73922.8,4.97,3.81,3.89,0,*70
1531667192.67,53978,17.69,73924.8,4.97,3.71,3.79,0,*7F
1531667193.92,53979,17.69,73924.3,4.97,3.71,3.79,0,*7E
1531667195.12,53980,17.69,73926.3,4.97,3.59,3.59,0,*70
1531667196.29,53981,17.69,73920.8,4.99,3.63,3.63,0,*7F
1531667197.47,53982,17.63,73920.5,4.99,3.81,3.85,0,*78
1531667198.7,53983,17.69,73924.0,4.97,3.71,3.81,0,*7C
1531667199.89,53984,17.69,73926.0,4.99,3.85,3.93,0,*7D
1531667201.1,53985,17.69,73924.5,4.99,3.75,3.85,0,*74
1531667202.35,53986,17.69,73926.8,4.97,3.79,3.79,0,*76
1531667203.58,53987,17.69,73920.0,4.97,3.71,3.81,0,*78
1531667204.81,53988,17.69,73922.3,4.99,3.71,3.75,0,*72
1531667206.0,53989,17.69,73924.8,4.99,3.81,3.81,0,*77
1531667207.23,53990,17.63,73920.3,4.99,3.71,3.75,0,*7B
1531667208.45,53991,17.69,73926.3,4.99,3.67,3.81,0,*76
1531667209.69,53992,17.69,73926.8,4.99,3.75,3.75,0,*7D
1531667210.94,53993,17.63,73920.8,4.97,3.67,3.71,0,*75
1531667212.12,53994,17.69,73926.3,4.99,3.85,3.85,0,*7B
1531667213.31,53995,17.69,73926.0,4.99,3.81,3.89,0,*72
1531667214.51,53996,17.69,73926.0,4.99,3.89,4.01,0,*7E
1531667215.74,53997,17.63,73926.5,4.99,3.97,3.97,0,*78
1531667216.95,53998,17.69,73930.0,4.99,3.93,4.05,0,*7F
1531667218.2,53999,17.69,73924.8,5.01,3.97,3.97,0,*76
1531667219.38,54000,17.69,73928.3,5.03,3.89,3.89,0,*7A
1531667220.56,54001,17.69,73928.0,5.03,3.85,3.89,0,*77
1531667221.75,54002,17.63,73926.0,5.03,3.89,3.89,0,*78
1531667223.0,54003,17.63,73930.5,5.01,3.97,3.97,0,*7B
1531667224.18,54004,17.69,73934.3,5.03,3.85,3.89,0,*72
1531667225.38,54005,17.63,73928.3,5.03,3.89,4.01,0,*78
1531667226.59,54006,17.69,73930.3,5.03,3.89,4.01,0,*7B
1531667227.77,54007,17.69,73930.3,5.03,4.07,4.07,0,*7D
1531667228.95,54008,17.69,73930.3,5.03,4.07,4.07,0,*72
1531667230.17,54009,17.69,73932.0,5.01,4.01,4.11,0,*70
1531667231.4,54010,17.63,73926.8,5.03,3.97,4.01,0,*73
1531667232.63,54011,17.69,73930.8,5.03,3.67,3.67,0,*7A
1531667233.88,54012,17.63,73928.3,5.01,3.67,3.67,0,*7B
1531667235.12,54013,17.69,73930.5,5.03,3.67,3.67,0,*78
1531667236.35,54014,17.69,73930.8,5.03,3.67,3.67,0,*7F
1531667237.53,54015,17.69,73928.5,5.07,3.81,3.93,0,*79
1531667238.71,54016,17.69,73928.8,5.03,3.85,3.89,0,*71
1531667239.89,54017,17.63,73924.8,5.03,3.85,3.89,0,*70
1531667241.1,54018,17.63,73928.0,5.03,3.89,4.01,0,*74
1531667242.32,54019,17.69,73930.0,5.03,3.79,3.79,0,*72
1531667243.56,54020,17.69,73930.5,5.03,3.67,3.67,0,*78
1531667244.79,54021,17.69,73928.8,5.03,3.67,3.67,0,*79
1531667245.99,54022,17.69,73930.0,5.03,3.63,3.67,0,*7E
1531667247.19,54023,17.63,73926.5,5.03,3.63,3.67,0,*7F
1531667248.42,54024,17.69,73924.0,5.03,3.75,3.75,0,*7C
1531667249.63,54025,17.69,73924.0,5.01,3.85,3.89,0,*73
1531667250.83,54026,17.69,73926.3,5.03,3.89,3.97,0,*71
1531667252.03,54027,17.69,73926.0,5.01,4.07,4.11,0,*7A
1531667253.26,54028,17.63,73922.3,5.03,4.01,3.97,0,*78
1531667254.46,54029,17.69,73920.3,5.03,3.85,3.97,0,*72
1531667255.63,54030,17.69,73922.8,5.03,3.85,3.85,0,*79
1531667256.84,54031,17.69,73924.3,5.03,3.97,4.07,0,*76
1531667258.04,54032,17.69,73924.3,5.03,4.01,4.07,0,*7D
1531667259.22,54033,17.63,73928.0,5.03,4.11,4.19,0,*72
1531667260.44,54034,17.69,73934.3,5.03,3.97,4.01,0,*75
1531667261.64,54035,17.69,73928.8,5.03,4.01,4.07,0,*7A
1531667262.88,54036,17.69,73930.3,5.03,3.67,3.67,0,*7F
1531667264.08,54037,17.63,73922.8,5.09,3.81,3.89,0,*7C
1531667265.26,54038,17.63,73922.8,5.07,3.89,3.93,0,*7E
1531667266.49,54039,17.63,73926.0,5.09,3.89,4.01,0,*7D
1531667267.67,54040,17.69,73932.5,5.07,3.81,3.89,0,*72
1531667268.85,54041,17.69,73930.3,5.07,3.81,3.89,0,*73
1531667270.03,54042,17.63,73924.5,5.07,3.81,3.89,0,*70
1531667271.22,54043,17.69,73926.8,5.07,3.81,3.81,0,*79
1531667272.4,54044,17.69,73926.8,5.07,3.89,3.89,0,*7E
1531667273.58,54045,17.69,73926.0,5.07,3.89,3.93,0,*74
1531667274.79,54046,17.63,73918.0,5.07,3.93,4.01,0,*70
1531667275.97,54047,17.69,73916.0,5.07,3.93,3.93,0,*7D
1531667277.2,54048,17.63,73914.3,5.07,3.79,3.71,0,*7A
1531667278.43,54049,17.69,73916.3,5.07,3.67,3.67,0,*73
1531667279.64,54050,17.69,73908.8,5.07,3.67,3.59,0,*76
1531667280.87,54051,17.69,73910.8,5.07,3.67,3.79,0,*75
1531667282.08,54052,17.63,73912.8,5.07,3.79,3.81,0,*7E
1531667283.3,54053,17.69,73922.5,5.07,4.01,4.01,0,*78
1531667284.49,54054,17.69,73926.8,5.07,3.89,3.81,0,*77
1531667285.69,54055,17.69,73930.8,5.07,3.79,3.81,0,*79
1531667286.9,54056,17.63,73924.8,5.07,3.67,3.59,0,*70
1531667288.13,54057,17.63,73928.8,5.07,3.71,3.71,0,*7C
1531667289.36,54058,17.69,73926.0,5.07,3.71,3.71,0,*73
1531667290.59,54059,17.63,73922.5,5.09,3.79,3.89,0,*73
1531667291.82,54060,17.63,73922.3,5.07,3.71,3.71,0,*78
1531667293.02,54061,17.63,73920.0,5.07,3.55,3.67,0,*78
1531667294.25,54062,17.69,73920.5,5.07,3.33,3.45,0,*7B
1531667295.47,54063,17.69,73918.8,5.03,3.37,3.53,0,*7D
1531667296.7,54064,17.69,73916.8,5.03,3.41,3.49,0,*70
1531667297.88,54065,17.69,73920.3,5.03,3.63,3.63,0,*79
1531667299.08,54066,17.69,73922.5,5.03,3.63,3.75,0,*7D
1531667300.31,54067,17.69,73920.5,5.03,3.67,3.79,0,*74
1531667301.55,54068,17.69,73920.8,5.03,3.67,3.67,0,*74
1531667302.72,54069,17.69,73918.8,5.03,3.63,3.63,0,*75
1531667303.95,54070,17.69,73916.3,5.03,3.75,3.79,0,*71
1531667305.13,54071,17.69,73916.3,5.03,3.85,3.89,0,*70
1531667306.37,54072,17.69,73914.3,5.03,3.67,3.67,0,*7F
1531667307.6,54073,17.69,73916.8,5.03,3.75,3.79,0,*72
1531667308.8,54074,17.69,73916.5,5.03,3.63,3.67,0,*7D
1531667310.0,54075,17.69,73914.0,5.03,3.63,3.67,0,*7C
1531667311.2,54076,17.69,73912.5,5.09,3.81,3.81,0,*71
1531667312.43,54077,17.69,73910.5,5.03,3.67,3.67,0,*7A
1531667313.6,54078,17.69,73910.3,5.07,3.55,3.55,0,*71
1531667314.78,54079,17.63,73910.0,5.07,3.59,3.59,0,*70
1531667316.01,54080,17.63,73908.3,5.03,3.41,3.49,0,*7A
1531667317.25,54081,17.63,73910.0,5.03,3.41,3.49,0,*7B
1531667318.47,54082,17.63,73906.5,5.07,3.53,3.53,0,*74
1531667319.66,54083,17.69,73910.8,5.01,3.63,3.63,0,*73
1531667320.88,54084,17.69,73908.0,5.03,3.49,3.53,0,*7D
1531667322.1,54085,17.69,73908.8,5.03,3.53,3.53,0,*77
1531667323.3,54086,17.63,73906.0,5.03,3.53,3.63,0,*77
1531667324.52,54087,17.69,73908.8,5.07,3.53,3.53,0,*71
1531667325.75,54088,17.63,73906.5,5.01,3.29,3.37,0,*77
1531667326.97,54089,17.69,73908.8,5.03,3.53,3.53,0,*7B
1531667328.14,54090,17.69,73908.8,5.03,3.55,3.63,0,*76
1531667329.34,54091,17.69,73910.5,5.03,3.75,3.85,0,*7D